Regional Weather Roundup
Issued by NWS

Home | Current Version | Previous Version | Text Only | Print | Product List | Glossary Off
Versions: 1 2 3 4 5 6 7 8 9 10 11 12 13 14 15 16 17 18 19 20 21 22 23 24 25 26 27 28 29 30 31 32 33 34 35 36 37 38 39 40 41 42 43 44 45 46 47 48 49 50

000
ASUS44 KMEG 071610
RWRTN
TENNESSEE HOURLY STATE WEATHER ROUNDUP
NATIONAL WEATHER SERVICE MEMPHIS TN
1000 AM CST SUN FEB 07 2016

TNZ002-004-019-021-049-052-054-088>092-071700-
WEST TENNESSEE

CITY           SKY/WX    TMP DP  RH WIND       PRES   REMARKS
MEMPHIS INTL   SUNNY     51  26  37 S8G22     30.20S
NWS MEMPHIS      N/A     49 N/A N/A MISG        N/A
JACKSON        SUNNY     49  25  39 SW10      30.19F
DYERSBURG      SUNNY     52  27  37 SW7       30.18F
UNION CITY     SUNNY     46  28  49 SW9       30.15F
PARIS          SUNNY     45  25  45 SW12      30.16F
LEXINGTON      SUNNY     43  27  52 S7        30.18F
$$

TNZ008-025-027-028-033-062-065-066-071700-
NORTH MIDDLE TENNESSEE

CITY           SKY/WX    TMP DP  RH WIND       PRES   REMARKS
NASHVILLE      PTSUNNY   47  25  42 S5        30.19F
CLARKSVILLE    SUNNY     46  25  43 SW12      30.16F
SMYRNA         MOSUNNY   44  29  56 SE5       30.22F
COOKEVILLE     SUNNY     43  28  56 S5        30.19S
CROSSVILLE     SUNNY     47  21  35 NW9       30.17F
$$

TNZ061-075-076-078-094-096-097-071700-
SOUTH MIDDLE TENNESSEE

CITY           SKY/WX    TMP DP  RH WIND       PRES   REMARKS
FAYETTEVILLE   SUNNY     46  27  46 W5        30.22S
TULLAHOMA      SUNNY     45  19  36 NW6       30.21F
WINCHESTER     SUNNY     43  27  52 CALM      30.22F
MCMINNVILLE    SUNNY     45  28  53 CALM      30.20F
COLUMBIA       SUNNY     48  30  49 SW3       30.18F
SHELBYVILLE    SUNNY     45  28  53 CALM      30.21F
$$

TNZ017-018-042-046-047-071700-
NORTHEAST TENNESSEE

CITY           SKY/WX    TMP DP  RH WIND       PRES   REMARKS
TRI CITIES     MOSUNNY   38  25  59 S6        30.16F WCI  33
$$

TNZ012-013-036-069-073-074-071700-
CENTRAL EAST TENNESSEE

CITY           SKY/WX    TMP DP  RH WIND       PRES   REMARKS
KNOXVILLE      SUNNY     41  26  55 VRB3      30.20S
OAK RIDGE      SUNNY     45  26  47 S5        30.20S
GATLINBURG       N/A     41  25  52 CALM      30.19R
MORRISTOWN     SUNNY     43  23  45 CALM      30.16S
$$

TNZ083-085-099-071700-
SOUTHEAST TENNESSEE

CITY           SKY/WX    TMP DP  RH WIND       PRES   REMARKS
CHATTANOOGA    MOSUNNY   46  22  38 E3        30.22S
$$

SKY/WX REPORTED AS FAIR MEANS FEW OR NO CLOUDS BELOW
12 THOUSAND FEET.





USA.gov is the U.S. government's official web portal to all federal, state and local government web resources and services.